Previsão horária em Ceperka

Hoje, 31 Julho, Sábado

Tempo Temperatura Precipitação Vento Pressão Humidade
00:00 +19°C° 0 mm 2 m/s 740 mmHg 75%
01:00 +18°C° 0 mm 2 m/s 740 mmHg 78%
02:00 +17°C° 0 mm 2 m/s 740 mmHg 82%
03:00 +16°C° 0 mm 2 m/s 740 mmHg 82%
04:00 +16°C° 0 mm 2 m/s 740 mmHg 82%
05:00 +16°C° 0 mm 2 m/s 740 mmHg 82%
06:00 +17°C° 0 mm 3 m/s 741 mmHg 77%
07:00 +19°C° 0 mm 3 m/s 741 mmHg 71%
08:00 +21°C° 0 mm 3 m/s 741 mmHg 65%
09:00 +24°C° 0 mm 3 m/s 741 mmHg 61%
10:00 +25°C° 0 mm 3 m/s 741 mmHg 56%
11:00 +27°C° 0 mm 4 m/s 741 mmHg 52%
12:00 +28°C° 0 mm 4 m/s 741 mmHg 50%
13:00 +28°C° 0 mm 4 m/s 741 mmHg 48%
14:00 +29°C° 0 mm 4 m/s 741 mmHg 46%
15:00 +29°C° 0 mm 3 m/s 741 mmHg 47%
16:00 +29°C° 0 mm 3 m/s 740 mmHg 49%
17:00 +29°C° 0 mm 2 m/s 740 mmHg 51%
18:00 +27°C° 0 mm 2 m/s 740 mmHg 56%
19:00 +26°C° 0 mm 2 m/s 740 mmHg 61%
20:00 +24°C° 0 mm 1 m/s 740 mmHg 66%
21:00 +22°C° 0.6 mm 3 m/s 740 mmHg 75%
22:00 +21°C° 0.6 mm 4 m/s 741 mmHg 84%
23:00 +19°C° 0.6 mm 5 m/s 741 mmHg 93%

Amanhã, 1 Agosto, Domingo

Tempo Temperatura Precipitação Vento Pressão Humidade
00:00 +19°C° 0.1 mm 5 m/s 741 mmHg 94%
01:00 +19°C° 0.1 mm 4 m/s 741 mmHg 95%
02:00 +19°C° 0.1 mm 3 m/s 741 mmHg 95%
03:00 +19°C° 0 mm 3 m/s 741 mmHg 95%
04:00 +19°C° 0 mm 3 m/s 741 mmHg 95%
05:00 +18°C° 0 mm 3 m/s 741 mmHg 94%
06:00 +19°C° 0 mm 3 m/s 741 mmHg 89%
07:00 +20°C° 0 mm 3 m/s 741 mmHg 84%
08:00 +21°C° 0 mm 3 m/s 742 mmHg 79%
09:00 +22°C° 0 mm 3 m/s 742 mmHg 70%
10:00 +25°C° 0 mm 3 m/s 742 mmHg 60%
11:00 +26°C° 0 mm 3 m/s 742 mmHg 50%
12:00 +27°C° 0 mm 3 m/s 742 mmHg 48%
13:00 +27°C° 0 mm 3 m/s 742 mmHg 46%
14:00 +28°C° 0 mm 2 m/s 742 mmHg 44%
15:00 +28°C° 0 mm 2 m/s 741 mmHg 46%
16:00 +28°C° 0 mm 2 m/s 741 mmHg 49%
17:00 +28°C° 0 mm 2 m/s 741 mmHg 52%
18:00 +26°C° 0 mm 2 m/s 741 mmHg 57%
19:00 +24°C° 0 mm 2 m/s 740 mmHg 63%
20:00 +21°C° 0 mm 2 m/s 740 mmHg 68%
21:00 +20°C° 0.4 mm 2 m/s 740 mmHg 75%
22:00 +19°C° 0.4 mm 2 m/s 740 mmHg 81%
23:00 +18°C° 0.4 mm 2 m/s 739 mmHg 88%

Depois de amanhã, 2 Agosto, Segunda-feira

Tempo Temperatura Precipitação Vento Pressão Humidade
00:00 +18°C° 1.5 mm 2 m/s 739 mmHg 90%
01:00 +18°C° 1.5 mm 3 m/s 739 mmHg 93%
02:00 +18°C° 1.5 mm 3 m/s 738 mmHg 95%
03:00 +18°C° 0.1 mm 3 m/s 738 mmHg 96%
04:00 +18°C° 0.1 mm 3 m/s 738 mmHg 96%
05:00 +18°C° 0.1 mm 3 m/s 737 mmHg 97%
06:00 +19°C° 0 mm 3 m/s 737 mmHg 94%
07:00 +19°C° 0 mm 3 m/s 737 mmHg 91%
08:00 +20°C° 0 mm 3 m/s 737 mmHg 88%
09:00 +21°C° 0.1 mm 3 m/s 737 mmHg 85%
10:00 +21°C° 0.1 mm 4 m/s 737 mmHg 82%
11:00 +22°C° 0.1 mm 4 m/s 738 mmHg 79%
12:00 +20°C° 0.2 mm 4 m/s 738 mmHg 83%
13:00 +19°C° 0.2 mm 5 m/s 738 mmHg 87%
14:00 +17°C° 0.2 mm 5 m/s 738 mmHg 90%
15:00 +17°C° 0 mm 5 m/s 739 mmHg 90%
16:00 +16°C° 0 mm 5 m/s 739 mmHg 90%
17:00 +16°C° 0 mm 5 m/s 739 mmHg 90%
18:00 +17°C° 0 mm 4 m/s 740 mmHg 89%
19:00 +15°C° 0 mm 4 m/s 740 mmHg 89%
20:00 +16°C° 0 mm 3 m/s 741 mmHg 89%
21:00 +16°C° 0.1 mm 3 m/s 741 mmHg 90%
22:00 +16°C° 0.1 mm 3 m/s 741 mmHg 90%
23:00 +16°C° 0.1 mm 3 m/s 741 mmHg 91%

3 Agosto, Terça-feira

Tempo Temperatura Precipitação Vento Pressão Humidade
00:00 +16°C° 0 mm 3 m/s 741 mmHg 90%
01:00 +16°C° 0 mm 3 m/s 742 mmHg 90%
02:00 +16°C° 0 mm 3 m/s 742 mmHg 89%
03:00 +16°C° 0 mm 3 m/s 742 mmHg 90%
04:00 +15°C° 0 mm 2 m/s 742 mmHg 91%
05:00 +15°C° 0 mm 2 m/s 742 mmHg 92%
06:00 +16°C° 0.3 mm 3 m/s 743 mmHg 90%
07:00 +17°C° 0.3 mm 3 m/s 743 mmHg 87%
08:00 +18°C° 0.3 mm 4 m/s 743 mmHg 84%
09:00 +19°C° 0.2 mm 4 m/s 743 mmHg 75%
10:00 +20°C° 0.2 mm 5 m/s 744 mmHg 65%
11:00 +21°C° 0.2 mm 6 m/s 744 mmHg 56%
12:00 +21°C° 0 mm 6 m/s 744 mmHg 54%
13:00 +22°C° 0 mm 6 m/s 744 mmHg 52%
14:00 +22°C° 0 mm 6 m/s 744 mmHg 50%
15:00 +22°C° 0 mm 6 m/s 744 mmHg 54%
16:00 +21°C° 0 mm 5 m/s 744 mmHg 59%
17:00 +21°C° 0 mm 5 m/s 744 mmHg 63%
18:00 +19°C° 0.1 mm 4 m/s 745 mmHg 70%
19:00 +18°C° 0.1 mm 4 m/s 745 mmHg 77%
20:00 +16°C° 0.1 mm 3 m/s 745 mmHg 84%
21:00 +16°C° 0 mm 3 m/s 745 mmHg 86%
22:00 +15°C° 0 mm 2 m/s 746 mmHg 89%
23:00 +14°C° 0 mm 2 m/s 746 mmHg 91%

4 Agosto, Quarta-feira

Tempo Temperatura Precipitação Vento Pressão Humidade
00:00 +14°C° 0 mm 2 m/s 746 mmHg 91%
01:00 +14°C° 0 mm 1 m/s 746 mmHg 91%
02:00 +14°C° 0 mm 1 m/s 746 mmHg 91%
03:00 +13°C° 0 mm 1 m/s 746 mmHg 91%
04:00 +12°C° 0 mm 0 m/s 746 mmHg 90%
05:00 +12°C° 0 mm 0 m/s 746 mmHg 90%
06:00 +14°C° 0 mm 0 m/s 746 mmHg 85%
07:00 +16°C° 0 mm 1 m/s 747 mmHg 79%
08:00 +19°C° 0 mm 1 m/s 747 mmHg 74%
09:00 +20°C° 0 mm 1 m/s 747 mmHg 68%
10:00 +22°C° 0 mm 1 m/s 747 mmHg 63%
11:00 +23°C° 0 mm 1 m/s 747 mmHg 57%
12:00 +24°C° 0 mm 2 m/s 746 mmHg 54%
13:00 +25°C° 0 mm 2 m/s 746 mmHg 50%
14:00 +25°C° 0 mm 2 m/s 746 mmHg 47%
15:00 +25°C° 0 mm 2 m/s 745 mmHg 48%
16:00 +25°C° 0 mm 2 m/s 745 mmHg 50%
17:00 +25°C° 0 mm 2 m/s 745 mmHg 51%
18:00 +22°C° 0 mm 3 m/s 744 mmHg 57%
19:00 +21°C° 0 mm 3 m/s 744 mmHg 62%
20:00 +19°C° 0 mm 3 m/s 744 mmHg 67%
21:00 +19°C° 0 mm 3 m/s 744 mmHg 68%
22:00 +18°C° 0 mm 3 m/s 744 mmHg 69%
23:00 +18°C° 0 mm 3 m/s 744 mmHg 70%

5 Agosto, Quinta-feira

Tempo Temperatura Precipitação Vento Pressão Humidade
00:00 +18°C° 0.2 mm 3 m/s 743 mmHg 77%
01:00 +17°C° 0.2 mm 3 m/s 743 mmHg 84%
02:00 +17°C° 0.2 mm 3 m/s 743 mmHg 91%
03:00 +17°C° 0.4 mm 3 m/s 742 mmHg 92%
04:00 +17°C° 0.4 mm 4 m/s 742 mmHg 94%
05:00 +15°C° 0.4 mm 4 m/s 742 mmHg 95%
06:00 +17°C° 0.5 mm 4 m/s 741 mmHg 96%
07:00 +17°C° 0.5 mm 4 m/s 741 mmHg 97%
08:00 +17°C° 0.5 mm 4 m/s 741 mmHg 97%
09:00 +17°C° 0.4 mm 4 m/s 741 mmHg 97%
10:00 +17°C° 0.4 mm 4 m/s 741 mmHg 97%
11:00 +18°C° 0.4 mm 3 m/s 741 mmHg 96%
12:00 +19°C° 0.6 mm 3 m/s 741 mmHg 91%
13:00 +20°C° 0.6 mm 3 m/s 741 mmHg 86%
14:00 +21°C° 0.6 mm 3 m/s 740 mmHg 81%
15:00 +21°C° 0.4 mm 4 m/s 740 mmHg 79%
16:00 +21°C° 0.4 mm 4 m/s 740 mmHg 77%
17:00 +21°C° 0.4 mm 4 m/s 740 mmHg 75%
18:00 +20°C° 0.1 mm 4 m/s 740 mmHg 80%
19:00 +19°C° 0.1 mm 3 m/s 741 mmHg 84%
20:00 +17°C° 0.1 mm 2 m/s 741 mmHg 88%
21:00 +17°C° 0 mm 2 m/s 741 mmHg 89%
22:00 +16°C° 0 mm 1 m/s 741 mmHg 89%
23:00 +16°C° 0 mm 1 m/s 741 mmHg 89%
Mostrar mais

Necessitamos do seu Consentimento

A Meteoprog e os seus Fornecedores de Serviços podem armazenar e aceder a dados pessoais como cookies, identificadores do dispositivo ou outras tecnologias semelhantes existentes no seu dispositivo e processar estes dados para personalizar conteúdos e anúncios, assim como funcionalidades nas redes sociais e análise de tráfego.

  • Armazenar e/ou aceder a informações no seu dispositivo

    Os cookies, identificadores do dispositivo ou outras informações podem ser armazenados ou acedidos no seu dispositivo, para os fins acima indicados.

  • Anúncios e conteúdos personalizados, medição de anúncios e conteúdos, dados sobre o público-alvo e desenvolvimento de produtos

    Os anúncios e os conteúdos podem ser personalizados com base num perfil. Podem ser adicionados dados adicionais para uma maior personalização dos anúncios e dos conteúdos. A eficácia dos anúncios e dos conteúdos pode ser medida. Podem ser obtidas informações sobre o público que visualizou os anúncios e os conteúdos. Estes dados podem ser usados para desenvolver ou melhorar sistemas, softwares ou a experiência do utilizador.

Ao clicar em "Eu concordo”, permitirá o uso de cookies, identificadores do dispositivo e web beacons mencionados ou outras tecnologias semelhantes. As configurações do navegador do seu dispositivo podem ser alteradas.

Para certos fins, podem ser invocados interesses legítimos ao invés de consentimento. Pode ler mais informação sobre este assunto na nossa Política de Privacidade e Cookies.